Regional Weather Roundup
Issued by NWS

Home | Current Version | Previous Version | Graphics & Text | Print | Product List | Glossary On
Versions: 1 2 3 4 5 6 7 8 9 10 11 12 13 14 15 16 17 18 19 20 21 22 23 24 25 26 27 28 29 30 31 32 33 34 35 36 37 38 39 40 41 42 43 44 45 46 47 48 49 50
000
ASUS45 KBOI 051810
RWRID
WEATHER ROUNDUP FOR IDAHO
NATIONAL WEATHER SERVICE BOISE ID
1100 AM MST THU MAR 05 2015

NOTE: "FAIR" INDICATES FEW OR NO CLOUDS BELOW 12000 FEET
WITH NO SIGNIFICANT WEATHER AND/OR OBSTRUCTIONS TO VISIBILITY

IDZ012-014-051900-
SOUTHWEST IDAHO


CITY           SKY/WX    TMP DP  RH WIND       PRES   REMARKS
BOISE          SUNNY     45  15  30 CALM      30.42R
CALDWELL       SUNNY     39  18  41 S8        30.45S WCI  34
MOUNTAIN HOME  SUNNY     41  14  33 E8        30.41S
$$

IDZ016-017-051900-
SOUTHCENTRAL IDAHO


CITY           SKY/WX    TMP DP  RH WIND       PRES   REMARKS
BURLEY         PTSUNNY   42  16  34 VRB3      30.39
JEROME         PTSUNNY   38  13  35 CALM      30.41S
TWIN FALLS     MOSUNNY   46  15  28 W8        30.40S
$$

IDZ019>023-051900-
SOUTHEAST IDAHO


CITY           SKY/WX    TMP DP  RH WIND       PRES   REMARKS
IDAHO FALLS    SUNNY     35  16  45 SW10      30.41S WCI  27
POCATELLO      MOSUNNY   40  18  41 SW10      30.41S WCI  33
REXBURG        SUNNY     31  14  49 CALM      30.41S
$$

IDZ006-010-011-018-031-032-051900-
CENTRAL IDAHO MOUNTAINS


CITY           SKY/WX    TMP DP  RH WIND       PRES   REMARKS
MCCALL         SUNNY     30  13  49 CALM      30.35S
HAILEY         PTSUNNY   30  12  47 CALM      30.38S
STANLEY          N/A     21   5  50 CALM      30.38R
SALMON         SUNNY     30  12  47 CALM      30.38F
CHALLIS        SUNNY     34   9  35 NE3       30.35S
$$

IDZ002-004-006-007-026-051900-
NORTHERN IDAHO


CITY           SKY/WX    TMP DP  RH WIND       PRES   REMARKS
LEWISTON       MOSUNNY   40  23  50 N3        30.36S
LOWELL           N/A     38  16  40 N3        30.44F
COEUR D`ALENE  MOSUNNY   37  18  44 NE6       30.33R WCI  33
MULLAN PASS    MOSUNNY   30   6  36 VRB6      30.22S WCI  24
$$


USA.gov is the U.S. government's official web portal to all federal, state and local government web resources and services.